Regional Weather Roundup
Issued by NWS

Home | Current Version | Previous Version | Text Only | Print | Product List | Glossary On
Versions: 1 2 3 4 5 6 7 8 9 10 11 12 13 14 15 16 17 18 19 20 21 22 23 24 25 26 27 28 29 30 31 32 33 34 35 36 37 38 39 40 41 42 43 44 45 46 47 48 49 50
000
ASUS44 KFWD 161901
RWRTX
NORTH TEXAS HOURLY WEATHER ROUNDUP
NATIONAL WEATHER SERVICE FORT WORTH TX
100 PM CST MON JAN 16 2017

NOTE: "FAIR" INDICATES FEW OR NO CLOUDS BELOW 12,000 FEET WITH NO
SIGNIFICANT WEATHER AND/OR OBSTRUCTIONS TO VISIBILITY.

TXZ118-119-162000-
DALLAS/FORT WORTH METROPLEX

CITY           SKY/WX    TMP DP  RH WIND       PRES   REMARKS
DFW AIRPORT    MOSUNNY   62  49  62 NW7       29.98F
DALLAS LOVE    MOSUNNY   62  49  62 NW6       29.99F
FTW MEACHAM    SUNNY     61  46  57 W12       29.98F
DAL-EXECUTIVE  SUNNY     62  48  60 W9        29.98F
FTW-ALLIANCE   MOSUNNY   60  47  61 NW10      29.99F
FTW-NAS-JRB    SUNNY     61  47  59 NW13      29.99F
FTW-SPINKS     SUNNY     63  46  55 W12G18    30.00F
ARLINGTON      SUNNY     62  48  60 W8        29.99F
GRAND PRAIRIE  SUNNY     61  48  63 W10       30.00F
ADDISON        SUNNY     61  50  67 W8G17     30.01F
MESQUITE       SUNNY     64  46  52 W12       29.99F
LANCASTER      SUNNY     63  47  57 NW9       29.99F
$$

TXZ091>094-102>105-117-120-121-131>134-162000-
NORTH CENTRAL TEXAS

CITY           SKY/WX    TMP DP  RH WIND       PRES   REMARKS
SHRMAN/DENISON SUNNY     56  49  78 W13       29.99F
GAINESVILLE    PTSUNNY   52  44  72 W9        30.01F
BOWIE          MOSUNNY   54  44  68 W10G17    30.00F
BRIDGEPORT     SUNNY     56  46  69 NW12      30.02F
DECATUR        MOSUNNY  N/A N/A N/A SW8       29.99F
DENTON         SUNNY     56  48  74 W14       29.99F
MCKINNEY       SUNNY     58  49  72 NW12      29.99F
BONHAM         SUNNY     57  46  67 W10       29.98F
ROCKWALL       SUNNY     62  48  58 W9G18     29.99F
TERRELL        SUNNY     65  46  50 W9        29.97F
WAXAHACHIE     SUNNY     63  50  63 NW6       29.99F
CLEBURNE       SUNNY     63  48  59 W10       30.00F
GRANBURY       SUNNY     62  48  61 NW6       30.01F
$$

TXZ083>090-098>101-113>116-127>130-139>142-154-155-162000-
WESTERN NORTH TEXAS

CITY           SKY/WX    TMP DP  RH WIND       PRES   REMARKS
WICHITA FALLS  MOSUNNY   52  37  56 W12       29.99F
WF-KICKAPOO    SUNNY     52  37  56 W12       30.01F
VERNON         SUNNY     52  34  51 W13       29.99F
ABILENE        SUNNY     55  44  66 NW7       30.01F
CISCO          SUNNY     59  45  58 NW7       30.01F
MINERAL WELLS  MOSUNNY   57  45  64 W10       29.99F
STEPHENVILLE   SUNNY     63  43  48 CALM      30.02F
COMANCHE       SUNNY     63  46  53 W6        30.00F
BROWNWOOD      SUNNY     63  46  55 CALM      30.01F
$$

TXZ143>147-156>162-174-175-162000-
CENTRAL TEXAS

CITY           SKY/WX    TMP DP  RH WIND       PRES   REMARKS
WACO           MOSUNNY   68  47  46 W5        29.98F
WACO-TSTC      MOSUNNY   68  45  42 NW6       29.97F
WACO-MCGREGOR  MOSUNNY   67  49  52 NW8       29.98F
HILLSBORO      SUNNY     66  48  52 W9        29.99F
CORSICANA      MOSUNNY   68  50  52 VRB7      29.98F
MEXIA          CLOUDY    66  46  49 NW6       29.97F
HEARNE         DRIZZLE   64  60  86 NW8       29.97F
CAMERON          N/A     65  53  64 NW7       29.97F
TEMPLE         PTSUNNY   68  47  46 NW8       29.98F
KILLEEN        MOSUNNY   67  46  45 W3        29.97F
KILLEEN-SKYLRK SUNNY     68  46  45 W6        29.98F
HAMILTON       SUNNY     66  44  44 W7        30.01F
LAMPASAS       SUNNY     68  48  48 W9        29.99F
$$

TXZ095>097-106>112-122>126-135>138-148>153-164>167-162000-
EAST TEXAS

CITY           SKY/WX    TMP DP  RH WIND       PRES   REMARKS
PARIS          MOSUNNY   64  48  55 W12       29.96F
SULPHUR SPRNGS CLOUDY    64  51  61 W9        29.99F
MOUNT PLEASANT PTSUNNY   64  61  88 SW7       29.97F
GILMER         DRIZZLE   65  64  97 W3        29.95F
MINEOLA        CLOUDY    63  52  67 W7        29.98S
TYLER          LGT RAIN  62  59  90 W6        29.97S
LONGVIEW       PTSUNNY   72  65  78 S17G29    29.94F
MARSHALL       CLOUDY    72  63  73 S15G29    29.98F
ATHENS         PTSUNNY   63  50  63 NW5       29.96F
PALESTINE      CLOUDY    63  61  94 N8        29.99F
JACKSONVILLE   LGT RAIN  68  65  90 SW7       29.98F
HENDERSON      CLOUDY    69  63  80 S12G21    29.97F
CENTER         RAIN      72  68  88 S6G17     30.00F
NACOGDOCHES    CLOUDY    68  64  88 S9        29.97F VSB 1/2
LUFKIN         LGT RAIN  69  67  93 SE6       29.97F
$$

SUPPLEMENTAL OBSERVATIONS (CENTRAL)

CITY           SKY/WX    TMP DP  RH WIND       PRES   REMARKS
$$

SUPPLEMENTAL OBSERVATIONS (WEST)

CITY           SKY/WX    TMP DP  RH WIND       PRES   REMARKS
$$

SUPPLEMENTAL OBSERVATIONS (EAST)

CITY           SKY/WX    TMP DP  RH WIND       PRES   REMARKS
$$

SUPPLEMENTAL OBSERVATIONS ARE A COLLECTION OF AUTOMATED INSTRUMENTS
THAT ARE MAINTAINED BY A VARIETY OF FEDERAL AND STATE AGENCIES.
CERTAIN ELEMENTS...SUCH AS HUMIDITY VALUES AND SUSTAINED WIND
SPEEDS...MAY BE APPROXIMATED.





USA.gov is the U.S. government's official web portal to all federal, state and local government web resources and services.